| DS18B20 | SHTC3 | PZEM-004T | WiFi | ||||||||
|---|---|---|---|---|---|---|---|---|---|---|---|
| ID | Date d/m/Y & Time | data1 สูง | data2 ต่ำ | data3 นอก | temp pcb | hum pcb | Volt | Amp | Watt | rssi | Time |
| 16937 | 29/08/2026 02:03:17 | 30.8  | 30.8  | 28.6  | 31.9  | 66.5  | 223.2  | 0.04  | 4.5  | -61  | 02:03 |
| 16936 | 29/08/2026 01:58:33 | 30.8  | 30.9  | 28.6  | 31.6  | 66.4  | 225.1  | 0.04  | 4.5  | -62  | 01:58 |
| 16935 | 29/08/2026 01:53:50 | 30.8  | 30.9  | 28.6  | 31.5  | 66.3  | 225.2  | 0.04  | 4.5  | -61  | 01:53 |
| 16934 | 29/08/2026 01:49:06 | 30.9  | 30.9  | 28.6  | 31.7  | 66.4  | 223.5  | 0.04  | 4.5  | -62  | 01:49 |
| 16933 | 29/08/2026 01:44:23 | 30.9  | 30.9  | 28.7  | 31.8  | 66.4  | 226.2  | 0.04  | 4.5  | -62  | 01:44 |
| 16932 | 29/08/2026 01:39:40 | 30.9  | 30.9  | 28.8  | 31.8  | 66.3  | 224.6  | 0.04  | 4.5  | -62  | 01:39 |
| 16931 | 29/08/2026 01:34:57 | 30.9  | 30.9  | 28.8  | 31.8  | 66.3  | 225.3  | 0.04  | 4.5  | -62  | 01:34 |
| 16930 | 29/08/2026 01:30:13 | 30.9  | 31.0  | 28.9  | 31.8  | 66.4  | 226.2  | 0.04  | 4.5  | -62  | 01:30 |
| 16929 | 29/08/2026 01:25:30 | 30.9  | 31.0  | 28.9  | 32.1  | 66.4  | 224.5  | 0.04  | 4.5  | -62  | 01:25 |
| 16928 | 29/08/2026 01:20:47 | 30.9  | 31.0  | 28.9  | 31.9  | 66.4  | 224.2  | 0.04  | 4.5  | -61  | 01:20 |
| 16927 | 29/08/2026 01:16:03 | 30.9  | 31.0  | 28.9  | 31.9  | 66.3  | 223.7  | 0.04  | 4.5  | -61  | 01:16 |
| 16926 | 29/08/2026 01:11:20 | 30.9  | 31.1  | 28.9  | 32.1  | 66.4  | 223.8  | 0.04  | 4.5  | -62  | 01:11 |
| 16925 | 29/08/2026 01:06:37 | 31.0  | 31.1  | 28.8  | 32.1  | 66.3  | 225.6  | 0.04  | 4.5  | -62  | 01:06 |
| 16924 | 29/08/2026 01:01:54 | 31.0  | 31.1  | 28.8  | 31.8  | 66.3  | 222.2  | 0.04  | 4.5  | -61  | 01:01 |
| 16923 | 29/08/2026 00:57:10 | 31.1  | 31.1  | 28.9  | 32.1  | 66.2  | 222.9  | 0.04  | 4.5  | -61  | 00:57 |
| 16922 | 29/08/2026 00:52:27 | 31.1  | 31.1  | 28.9  | 32.1  | 66.3  | 226.5  | 0.04  | 4.5  | -63  | 00:52 |
| 16921 | 29/08/2026 00:47:44 | 31.1  | 31.1  | 28.9  | 32.1  | 66.3  | 222.0  | 0.04  | 4.5  | -61  | 00:47 |
| 16920 | 29/08/2026 00:43:00 | 31.1  | 31.1  | 28.9  | 32.0  | 66.2  | 223.8  | 0.04  | 4.5  | -62  | 00:43 |
| 16919 | 29/08/2026 00:38:16 | 31.1  | 31.1  | 28.9  | 32.1  | 66.2  | 225.3  | 0.04  | 4.5  | -62  | 00:38 |
| 16918 | 29/08/2026 00:33:33 | 31.1  | 31.2  | 28.9  | 32.1  | 66.1  | 223.7  | 0.04  | 4.5  | -62  | 00:33 |
| 16917 | 29/08/2026 00:28:50 | 31.1  | 31.2  | 28.8  | 32.2  | 66.2  | 223.5  | 0.04  | 4.5  | -61  | 00:28 |
| 16916 | 29/08/2026 00:24:06 | 31.2  | 31.2  | 28.7  | 32.1  | 66.2  | 223.4  | 0.04  | 4.5  | -62  | 00:24 |
| 16915 | 29/08/2026 00:19:23 | 31.2  | 31.2  | 28.5  | 32.1  | 66.2  | 224.9  | 0.04  | 4.5  | -62  | 00:19 |
| 16914 | 29/08/2026 00:14:40 | 31.2  | 31.2  | 28.5  | 32.1  | 66.2  | 222.7  | 0.04  | 4.5  | -62  | 00:14 |